ROMMA est une association bénévole à but non lucratif. Votre soutien est indispensable : ADHERER à ROMMA ou FAIRE un DON

Chambon - (38, Isère)

Oisans (2460 m)   Longitude: 06° 10' 42" E   Latitude: 45° 01' 32" N Station partenaire n°803
 

Détail journalier du     <<     >>

Température Humidité Vent Dir Rafale Dir. rafale Neige 1 Neige 2
Heure (°C) (%) (km/h) (km/h) (cm) (cm)
01:00 -0.1234NNE8SSO177213
02:00 -0.2213NNE8NNE178213
03:00 0.0202NE7NE177213
04:00 -0.1213NE9SO177213
05:00 0.5172SSE7SSE177213
06:00 0.3152NNE9NNE177213
07:00 0.9155NNE16NE177213
08:00 0.9157NNE16NE177213
09:00 2.61410NNE18NE177213
10:00 3.0168N15NNE177213
11:00 4.4175N9N177213
12:00 8.8132N7N176213
13:00 8.4162OSO8OSO176213
14:00 9.6162SO7SO175213
15:00 6.3194SO11OSO175213
16:00 5.9237OSO12OSO175213
17:00 5.8257OSO12OSO175213
18:00 4.8282ESE7SE175213
19:00 2.8402ESE7ESE175213
20:00 1.5442ENE5E175213
21:00 1.0441ENE3S175213
22:00 1.24103ESE175213
23:00 2.3332NE8SSO175213
minuit 2.1312ENE7ENE175213

Graphique du 23-03-2019

 

Serveur OMMA